,,Stat6,,Stat2,,Stat8,,Stat9,,Stat10,,Wind1,,Wind1,
time,status,PA1M_AVG,status,PR1M_SUM,status,RH1M_AVG,status,SR1M_AVG,status,TA1M_AVG,status,W1dAve1m,status,W1sAve1m,
2005-02-17, 00:00:00,VALID,919.084,VALID,0,VALID,100,VALID,0,VALID,19.7921,VALID,221,VALID,0.13125,
2005-02-17, 00:01:01,VALID,919.058,VALID,0,VALID,100,VALID,0,VALID,19.7862,VALID,221,VALID,0.0414063,
2005-02-17, 00:02:00,VALID,919.033,VALID,0,VALID,100,VALID,0,VALID,19.7733,VALID,221,VALID,0,
2005-02-17, 00:03:00,VALID,918.987,VALID,0,VALID,100,VALID,0,VALID,19.77,VALID,221,VALID,0,
2005-02-17, 00:04:01,VALID,918.97,VALID,0,VALID,100,VALID,0.0169808,VALID,19.7534,VALID,221,VALID,0,
2005-02-17, 00:05:01,VALID,918.942,VALID,0,VALID,100,VALID,0,VALID,19.7407,VALID,221,VALID,0,
2005-02-17, 00:06:01,VALID,918.934,VALID,0,VALID,100,VALID,-0.0509425,VALID,19.7288,VALID,221,VALID,0.00159801,
2005-02-17, 00:07:00,VALID,918.919,VALID,0,VALID,100,VALID,-0.101885,VALID,19.7134,VALID,221,VALID,0.239462,
2005-02-17, 00:08:00,VALID,918.911,VALID,0,VALID,100,VALID,-0.118866,VALID,19.6843,VALID,221,VALID,0.324219,
2005-02-17, 00:09:00,VALID,918.907,VALID,0,VALID,100,VALID,-0.101885,VALID,19.6645,VALID,221,VALID,0.187089,
2005-02-17, 00:10:01,VALID,918.902,VALID,0,VALID,100,VALID,-0.0849042,VALID,19.6456,VALID,221,VALID,0.00571646,
2005-02-17, 00:11:00,VALID,918.897,VALID,0,VALID,100,VALID,-0.101885,VALID,19.6352,VALID,221,VALID,0,
2005-02-17, 00:12:00,VALID,918.889,VALID,0,VALID,100,VALID,-0.101885,VALID,19.6329,VALID,221,VALID,0,
2005-02-17, 00:13:00,VALID,918.901,VALID,0,VALID,100,VALID,-0.101885,VALID,19.626,VALID,221,VALID,0,
2005-02-17, 00:14:01,VALID,918.897,VALID,0,VALID,100,VALID,-0.101885,VALID,19.6389,VALID,221,VALID,0,
2005-02-17, 00:15:01,VALID,918.881,VALID,0,VALID,100,VALID,-0.101885,VALID,19.6165,VALID,221,VALID,0,
2005-02-17, 00:16:01,VALID,918.861,VALID,0,VALID,100,VALID,-0.101885,VALID,19.5971,VALID,221,VALID,0,
2005-02-17, 00:17:01,VALID,918.856,VALID,0,VALID,100,VALID,-0.0849042,VALID,19.5711,VALID,221,VALID,0,
2005-02-17, 00:18:01,VALID,918.843,VALID,0,VALID,100,VALID,-0.101885,VALID,19.5482,VALID,221,VALID,0,
2005-02-17, 00:19:01,VALID,918.821,VALID,0,VALID,100,VALID,-0.0679233,VALID,19.5187,VALID,221,VALID,0,
2005-02-17, 00:20:01,VALID,918.789,VALID,0,VALID,100,VALID,-0.101885,VALID,19.5291,VALID,216,VALID,0.0161701,
2005-02-17, 00:21:01,VALID,918.78,VALID,0,VALID,100,VALID,-0.0339617,VALID,19.5254,VALID,162,VALID,0.41276,
2005-02-17, 00:22:01,VALID,918.761,VALID,0,VALID,100,VALID,0.0169808,VALID,19.4956,VALID,97,VALID,0.668527,
2005-02-17, 00:23:01,VALID,918.735,VALID,0,VALID,100,VALID,-0.0169808,VALID,19.46,VALID,80,VALID,0.786458,
2005-02-17, 00:24:01,VALID,918.728,VALID,0,VALID,100,VALID,0.0169808,VALID,19.3952,VALID,78,VALID,0.900343,
2005-02-17, 00:25:01,VALID,918.706,VALID,0,VALID,100,VALID,0,VALID,19.3662,VALID,78,VALID,0.829613,
2005-02-17, 00:26:00,VALID,918.684,VALID,0,VALID,100,VALID,0,VALID,19.3242,VALID,78,VALID,0.863948,
2005-02-17, 00:27:01,VALID,918.666,VALID,0,VALID,100,VALID,0,VALID,19.2949,VALID,78,VALID,0.825347,
2005-02-17, 00:28:01,VALID,918.646,VALID,0,VALID,100,VALID,0,VALID,19.3316,VALID,78,VALID,0.927144,
2005-02-17, 00:29:01,VALID,918.63,VALID,0,VALID,100,VALID,0,VALID,19.4183,VALID,79,VALID,0.998728,
2005-02-17, 00:30:01,VALID,918.617,VALID,0,VALID,100,VALID,0,VALID,19.4312,VALID,84,VALID,1.11338,
2005-02-17, 00:31:01,VALID,918.593,VALID,0,VALID,100,VALID,0,VALID,19.4245,VALID,90,VALID,1.17436,
2005-02-17, 00:32:01,VALID,918.6,VALID,0,VALID,100,VALID,0.0169808,VALID,19.3893,VALID,90,VALID,0.981136,
2005-02-17, 00:33:01,VALID,918.594,VALID,0,VALID,100,VALID,-0.0169808,VALID,19.3475,VALID,90,VALID,0.907848,
2005-02-17, 00:34:01,VALID,918.575,VALID,0,VALID,100,VALID,0,VALID,19.3051,VALID,91,VALID,0.675509,
2005-02-17, 00:35:01,VALID,918.557,VALID,0,VALID,100,VALID,0,VALID,19.2931,VALID,98,VALID,0.726749,
2005-02-17, 00:36:01,VALID,918.536,VALID,0,VALID,100,VALID,0,VALID,19.2733,VALID,115,VALID,0.906977,
2005-02-17, 00:37:01,VALID,918.529,VALID,0,VALID,100,VALID,0,VALID,19.2569,VALID,120,VALID,0.77763,
2005-02-17, 00:38:01,VALID,918.501,VALID,0,VALID,100,VALID,0,VALID,19.2601,VALID,120,VALID,0.777876,
2005-02-17, 00:39:01,VALID,918.48,VALID,0,VALID,100,VALID,0,VALID,19.2795,VALID,121,VALID,0.575335,
2005-02-17, 00:40:01,VALID,918.462,VALID,0,VALID,100,VALID,-0.0169808,VALID,19.3085,VALID,123,VALID,0.338995,
2005-02-17, 00:41:01,VALID,918.442,VALID,0,VALID,100,VALID,0,VALID,19.3545,VALID,123,VALID,0.546317,
2005-02-17, 00:42:01,VALID,918.434,VALID,0,VALID,100,VALID,-0.0339617,VALID,19.383,VALID,119,VALID,0.690225,
2005-02-17, 00:43:01,VALID,918.41,VALID,0,VALID,100,VALID,0,VALID,19.3989,VALID,112,VALID,0.72433,
2005-02-17, 00:44:01,VALID,918.409,VALID,0,VALID,100,VALID,-0.0169808,VALID,19.3957,VALID,108,VALID,0.818359,
2005-02-17, 00:45:01,VALID,918.406,VALID,0,VALID,100,VALID,0,VALID,19.4056,VALID,108,VALID,0.842115,
2005-02-17, 00:46:01,VALID,918.409,VALID,0,VALID,100,VALID,-0.0169808,VALID,19.3962,VALID,110,VALID,1.00036,
2005-02-17, 00:47:01,VALID,918.418,VALID,0,VALID,100,VALID,-0.0169808,VALID,19.3964,VALID,114,VALID,0.752725,
2005-02-17, 00:48:01,VALID,918.415,VALID,0,VALID,100,VALID,-0.0169808,VALID,19.3925,VALID,124,VALID,0.92207,
2005-02-17, 00:49:01,VALID,918.43,VALID,0,VALID,100,VALID,-0.0339617,VALID,19.419,VALID,124,VALID,0.969703,
2005-02-17, 00:50:01,VALID,918.429,VALID,0,VALID,100,VALID,-0.0339617,VALID,19.4349,VALID,130,VALID,1.49028,
2005-02-17, 00:51:01,VALID,918.444,VALID,0,VALID,100,VALID,-0.0679233,VALID,19.465,VALID,126,VALID,1.00857,
2005-02-17, 00:52:01,VALID,918.449,VALID,0,VALID,100,VALID,-0.0849042,VALID,19.4747,VALID,122,VALID,1.10645,
2005-02-17, 00:53:01,VALID,918.463,VALID,0,VALID,100,VALID,-0.0849042,VALID,19.4777,VALID,126,VALID,1.17188,
2005-02-17, 00:54:00,VALID,918.466,VALID,0,VALID,100,VALID,-0.0849042,VALID,19.4908,VALID,132,VALID,1.31895,
2005-02-17, 00:55:00,VALID,918.479,VALID,0,VALID,100,VALID,-0.0849042,VALID,19.4839,VALID,121,VALID,0.852865,
2005-02-17, 00:56:00,VALID,918.468,VALID,0,VALID,100,VALID,-0.0849042,VALID,19.4941,VALID,121,VALID,1.04342,
2005-02-17, 00:57:00,VALID,918.454,VALID,0,VALID,100,VALID,-0.101885,VALID,19.5,VALID,121,VALID,1.35472,
2005-02-17, 00:58:00,VALID,918.447,VALID,0,VALID,100,VALID,-0.0679233,VALID,19.5266,VALID,112,VALID,1.28089,
2005-02-17, 00:59:00,VALID,918.43,VALID,0,VALID,100,VALID,-0.101885,VALID,19.5263,VALID,108,VALID,1.08008,
2005-02-17, 01:00:00,VALID,918.424,VALID,0,VALID,100,VALID,-0.0509425,VALID,19.5522,VALID,113,VALID,1.04446,
2005-02-17, 01:01:00,VALID,918.423,VALID,0,VALID,100,VALID,-0.0679233,VALID,19.5452,VALID,108,VALID,1.00074,
2005-02-17, 01:02:00,VALID,918.413,VALID,0,VALID,100,VALID,-0.0679233,VALID,19.5482,VALID,115,VALID,0.888951,
2005-02-17, 01:03:00,VALID,918.394,VALID,0,VALID,100,VALID,-0.0509425,VALID,19.5318,VALID,111,VALID,0.874047,
2005-02-17, 01:04:00,VALID,918.387,VALID,0,VALID,100,VALID,-0.0509425,VALID,19.5355,VALID,107,VALID,1.15189,
2005-02-17, 01:05:00,VALID,918.379,VALID,0,VALID,100,VALID,-0.0849042,VALID,19.5288,VALID,98,VALID,0.982515,
2005-02-17, 01:06:00,VALID,918.367,VALID,0,VALID,100,VALID,-0.0339617,VALID,19.5196,VALID,102,VALID,1.13681,
2005-02-17, 01:07:00,VALID,918.37,VALID,0,VALID,100,VALID,-0.0509425,VALID,19.4936,VALID,110,VALID,1.04936,
2005-02-17, 01:08:00,VALID,918.346,VALID,0,VALID,100,VALID,-0.0679233,VALID,19.4903,VALID,112,VALID,1.20833,
2005-02-17, 01:09:00,VALID,918.346,VALID,0,VALID,100,VALID,-0.0509425,VALID,19.4702,VALID,109,VALID,0.941501,
2005-02-17, 01:10:00,VALID,918.356,VALID,0,VALID,100,VALID,-0.0339617,VALID,19.4873,VALID,124,VALID,0.645198,
2005-02-17, 01:11:00,VALID,918.349,VALID,0,VALID,100,VALID,-0.0509425,VALID,19.4742,VALID,118,VALID,0.960069,
2005-02-17, 01:12:00,VALID,918.359,VALID,0,VALID,100,VALID,-0.0509425,VALID,19.4777,VALID,130,VALID,1.00176,
2005-02-17, 01:13:00,VALID,918.364,VALID,0,VALID,100,VALID,-0.0509425,VALID,19.4839,VALID,132,VALID,0.960211,
2005-02-17, 01:14:00,VALID,918.369,VALID,0,VALID,100,VALID,-0.0339617,VALID,19.4869,VALID,124,VALID,0.849787,
2005-02-17, 01:15:00,VALID,918.36,VALID,0,VALID,100,VALID,-0.0679233,VALID,19.4938,VALID,127,VALID,0.720203,
2005-02-17, 01:16:00,VALID,918.344,VALID,0,VALID,100,VALID,-0.0849042,VALID,19.4871,VALID,127,VALID,0.704241,
2005-02-17, 01:17:00,VALID,918.337,VALID,0,VALID,100,VALID,-0.0339617,VALID,19.4871,VALID,128,VALID,0.481326,
2005-02-17, 01:18:00,VALID,918.318,VALID,0,VALID,100,VALID,-0.0509425,VALID,19.4869,VALID,136,VALID,1.1033,
2005-02-17, 01:19:00,VALID,918.287,VALID,0,VALID,100,VALID,-0.0679233,VALID,19.5132,VALID,135,VALID,0.877131,
2005-02-17, 01:20:00,VALID,918.26,VALID,0,VALID,100,VALID,-0.0339617,VALID,19.5164,VALID,121,VALID,1.04307,
2005-02-17, 01:21:00,VALID,918.221,VALID,0,VALID,100,VALID,-0.0509425,VALID,19.4965,VALID,101,VALID,1.06529,
2005-02-17, 01:22:00,VALID,918.211,VALID,0,VALID,100,VALID,-0.0169808,VALID,19.4769,VALID,104,VALID,1.13529,
2005-02-17, 01:23:00,VALID,918.188,VALID,0,VALID,100,VALID,-0.0339617,VALID,19.4777,VALID,105,VALID,0.966619,
2005-02-17, 01:24:00,VALID,918.154,VALID,0,VALID,100,VALID,-0.0679233,VALID,19.4615,VALID,119,VALID,1.04745,
2005-02-17, 01:25:00,VALID,918.131,VALID,0,VALID,100,VALID,-0.0169808,VALID,19.4484,VALID,112,VALID,0.930069,
2005-02-17, 01:26:00,VALID,918.118,VALID,0,VALID,100,VALID,-0.0849042,VALID,19.4488,VALID,122,VALID,0.678544,
2005-02-17, 01:27:00,VALID,918.101,VALID,0,VALID,100,VALID,-0.0339617,VALID,19.4421,VALID,120,VALID,0.999238,
2005-02-17, 01:28:00,VALID,918.095,VALID,0,VALID,100,VALID,-0.0849042,VALID,19.4389,VALID,119,VALID,0.637767,
2005-02-17, 01:29:00,VALID,918.075,VALID,0,VALID,100,VALID,-0.0679233,VALID,19.4223,VALID,120,VALID,0.940589,
2005-02-17, 01:30:00,VALID,918.058,VALID,0,VALID,100,VALID,-0.0509425,VALID,19.4253,VALID,120,VALID,1.2115,
2005-02-17, 01:31:00,VALID,918.044,VALID,0,VALID,100,VALID,-0.0509425,VALID,19.4384,VALID,115,VALID,1.02362,
2005-02-17, 01:32:00,VALID,918.045,VALID,0,VALID,100,VALID,-0.0509425,VALID,19.4518,VALID,124,VALID,1.03761,
2005-02-17, 01:33:00,VALID,918.058,VALID,0,VALID,100,VALID,-0.0509425,VALID,19.4578,VALID,133,VALID,1.03754,
2005-02-17, 01:34:00,VALID,918.067,VALID,0,VALID,100,VALID,-0.0169808,VALID,19.4613,VALID,133,VALID,1.13839,
2005-02-17, 01:35:00,VALID,918.074,VALID,0,VALID,100,VALID,-0.0679233,VALID,19.465,VALID,139,VALID,1.04566,
2005-02-17, 01:36:00,VALID,918.093,VALID,0,VALID,100,VALID,-0.101885,VALID,19.4484,VALID,139,VALID,1.02416,
2005-02-17, 01:37:00,VALID,918.089,VALID,0,VALID,100,VALID,-0.101885,VALID,19.4454,VALID,150,VALID,1.10605,
2005-02-17, 01:38:00,VALID,918.086,VALID,0,VALID,100,VALID,-0.0679233,VALID,19.4421,VALID,158,VALID,1.06212,
2005-02-17, 01:39:00,VALID,918.089,VALID,0,VALID,100,VALID,0,VALID,19.4424,VALID,146,VALID,0.732617,
2005-02-17, 01:40:00,VALID,918.069,VALID,0,VALID,100,VALID,-0.0679233,VALID,19.4265,VALID,145,VALID,0.610283,
2005-02-17, 01:41:00,VALID,918.053,VALID,0,VALID,100,VALID,-0.0509425,VALID,19.422,VALID,163,VALID,1.07961,
2005-02-17, 01:42:00,VALID,918.041,VALID,0,VALID,100,VALID,-0.0679233,VALID,19.4325,VALID,157,VALID,0.953497,
2005-02-17, 01:43:00,VALID,918.037,VALID,0,VALID,100,VALID,-0.0169808,VALID,19.4521,VALID,145,VALID,0.653166,
2005-02-17, 01:44:00,VALID,918.013,VALID,0,VALID,100,VALID,-0.0509425,VALID,19.4456,VALID,142,VALID,1.19121,
2005-02-17, 01:45:00,VALID,918.014,VALID,0,VALID,100,VALID,-0.0509425,VALID,19.4583,VALID,154,VALID,0.886446,
2005-02-17, 01:46:00,VALID,918.02,VALID,0,VALID,100,VALID,-0.101885,VALID,19.4647,VALID,156,VALID,0.952217,
2005-02-17, 01:47:00,VALID,918.011,VALID,0,VALID,100,VALID,-0.0679233,VALID,19.4682,VALID,151,VALID,0.681974,
2005-02-17, 01:48:00,VALID,918.006,VALID,0,VALID,100,VALID,-0.0679233,VALID,19.468,VALID,139,VALID,1.51581,
2005-02-17, 01:49:00,VALID,918.01,VALID,0,VALID,100,VALID,-0.0339617,VALID,19.5164,VALID,147,VALID,1.4464,
2005-02-17, 01:50:00,VALID,918.011,VALID,0,VALID,100,VALID,-0.0849042,VALID,19.5328,VALID,146,VALID,1.1464,
2005-02-17, 01:51:00,VALID,918.008,VALID,0,VALID,100,VALID,-0.0169808,VALID,19.5447,VALID,138,VALID,1.24028,
2005-02-17, 01:52:00,VALID,917.989,VALID,0,VALID,100,VALID,0,VALID,19.5666,VALID,144,VALID,0.814024,
2005-02-17, 01:53:00,VALID,917.986,VALID,0,VALID,100,VALID,0,VALID,19.5959,VALID,147,VALID,1.05108,
2005-02-17, 01:54:00,VALID,917.975,VALID,0,VALID,100,VALID,0,VALID,19.6185,VALID,143,VALID,1.66025,
2005-02-17, 01:55:00,VALID,917.946,VALID,0,VALID,100,VALID,0.0169808,VALID,19.6344,VALID,141,VALID,1.25625,
2005-02-17, 01:56:00,VALID,917.928,VALID,0,VALID,100,VALID,0,VALID,19.6501,VALID,138,VALID,1.22865,
2005-02-17, 01:57:00,VALID,917.917,VALID,0,VALID,100,VALID,0,VALID,19.654,VALID,117,VALID,0.586124,
2005-02-17, 01:58:00,VALID,917.896,VALID,0,VALID,100,VALID,0.0169808,VALID,19.6635,VALID,114,VALID,1.31529,
2005-02-17, 01:59:00,VALID,917.879,VALID,0,VALID,100,VALID,0,VALID,19.6704,VALID,105,VALID,1.10958,
2005-02-17, 02:00:00,VALID,917.851,VALID,0,VALID,100,VALID,0,VALID,19.6667,VALID,110,VALID,1.16635,
2005-02-17, 02:01:00,VALID,917.833,VALID,0,VALID,100,VALID,0,VALID,19.6637,VALID,117,VALID,0.974564,
2005-02-17, 02:02:00,VALID,917.827,VALID,0,VALID,100,VALID,0.0169808,VALID,19.6667,VALID,116,VALID,0.97923,
2005-02-17, 02:03:00,VALID,917.813,VALID,0,VALID,100,VALID,0,VALID,19.6702,VALID,125,VALID,1.38626,
2005-02-17, 02:04:00,VALID,917.792,VALID,0,VALID,100,VALID,0.0169808,VALID,19.6535,VALID,127,VALID,1.48656,
2005-02-17, 02:05:00,VALID,917.782,VALID,0,VALID,100,VALID,0,VALID,19.6831,VALID,120,VALID,1.59048,
2005-02-17, 02:06:00,VALID,917.758,VALID,0,VALID,100,VALID,0.0339617,VALID,19.6794,VALID,127,VALID,1.76749,
2005-02-17, 02:07:00,VALID,917.747,VALID,0,VALID,100,VALID,-0.0339617,VALID,19.6863,VALID,116,VALID,1.43173,
2005-02-17, 02:08:00,VALID,917.722,VALID,0,VALID,100,VALID,0,VALID,19.6866,VALID,111,VALID,1.86612,
2005-02-17, 02:09:00,VALID,917.708,VALID,0,VALID,100,VALID,0,VALID,19.6896,VALID,109,VALID,1.75972,
2005-02-17, 02:10:00,VALID,917.691,VALID,0,VALID,100,VALID,0,VALID,19.6863,VALID,94,VALID,1.44822,
2005-02-17, 02:11:00,VALID,917.658,VALID,0,VALID,100,VALID,-0.0169808,VALID,19.6896,VALID,104,VALID,1.21949,
2005-02-17, 02:12:00,VALID,917.634,VALID,0,VALID,100,VALID,0,VALID,19.6826,VALID,112,VALID,1.18823,
2005-02-17, 02:13:00,VALID,917.592,VALID,0,VALID,100,VALID,0,VALID,19.6833,VALID,120,VALID,1.38172,
2005-02-17, 02:14:00,VALID,917.574,VALID,0,VALID,100,VALID,-0.0169808,VALID,19.6732,VALID,134,VALID,1.60629,
2005-02-17, 02:15:00,VALID,917.542,VALID,0,VALID,100,VALID,0,VALID,19.6764,VALID,135,VALID,1.8165,
2005-02-17, 02:16:00,VALID,917.503,VALID,0,VALID,100,VALID,0,VALID,19.6868,VALID,138,VALID,1.42678,
2005-02-17, 02:17:00,VALID,917.485,VALID,0,VALID,100,VALID,0,VALID,19.6801,VALID,140,VALID,1.3244,
2005-02-17, 02:18:00,VALID,917.471,VALID,0,VALID,100,VALID,0,VALID,19.6632,VALID,145,VALID,1.55357,
2005-02-17, 02:19:00,VALID,917.461,VALID,0,VALID,100,VALID,0,VALID,19.6637,VALID,140,VALID,1.09127,
2005-02-17, 02:20:00,VALID,917.455,VALID,0,VALID,100,VALID,0.0169808,VALID,19.6401,VALID,143,VALID,1.54497,
2005-02-17, 02:21:00,VALID,917.442,VALID,0,VALID,100,VALID,-0.0679233,VALID,19.655,VALID,135,VALID,1.76385,
2005-02-17, 02:22:00,VALID,917.429,VALID,0,VALID,100,VALID,-0.118866,VALID,19.6458,VALID,133,VALID,1.6441,
2005-02-17, 02:23:00,VALID,917.415,VALID,0,VALID,100,VALID,-0.0849042,VALID,19.6451,VALID,149,VALID,1.3592,
2005-02-17, 02:24:00,VALID,917.408,VALID,0,VALID,100,VALID,-0.0849042,VALID,19.655,VALID,145,VALID,1.38014,
2005-02-17, 02:25:00,VALID,917.39,VALID,0,VALID,100,VALID,-0.0339617,VALID,19.665,VALID,143,VALID,1.15662,
2005-02-17, 02:26:00,VALID,917.398,VALID,0,VALID,100,VALID,-0.101885,VALID,19.6617,VALID,146,VALID,1.10447,
2005-02-17, 02:27:00,VALID,917.376,VALID,0,VALID,100,VALID,-0.101885,VALID,19.6617,VALID,153,VALID,1.68626,
2005-02-17, 02:28:00,VALID,917.344,VALID,0,VALID,100,VALID,-0.101885,VALID,19.6617,VALID,153,VALID,1.26465,
2005-02-17, 02:29:00,VALID,917.299,VALID,0,VALID,100,VALID,-0.101885,VALID,19.6461,VALID,152,VALID,1.24647,
2005-02-17, 02:30:00,VALID,917.272,VALID,0,VALID,100,VALID,-0.0849042,VALID,19.6394,VALID,157,VALID,1.30599,
2005-02-17, 02:31:00,VALID,917.233,VALID,0,VALID,100,VALID,-0.101885,VALID,19.6426,VALID,151,VALID,1.19732,
2005-02-17, 02:32:00,VALID,917.195,VALID,0,VALID,100,VALID,-0.118866,VALID,19.6361,VALID,154,VALID,1.34392,
2005-02-17, 02:33:00,VALID,917.175,VALID,0,VALID,100,VALID,-0.101885,VALID,19.6098,VALID,153,VALID,1.19494,
2005-02-17, 02:34:00,VALID,917.162,VALID,0,VALID,100,VALID,-0.101885,VALID,19.62,VALID,147,VALID,1.31962,
2005-02-17, 02:35:00,VALID,917.14,VALID,0,VALID,99.9964,VALID,-0.0849042,VALID,19.6071,VALID,143,VALID,1.35999,
2005-02-17, 02:36:00,VALID,917.14,VALID,0,VALID,99.987,VALID,-0.0339617,VALID,19.6093,VALID,146,VALID,1.45964,
2005-02-17, 02:37:00,VALID,917.148,VALID,0,VALID,99.9418,VALID,0.0339617,VALID,19.615,VALID,149,VALID,1.03906,
2005-02-17, 02:38:00,VALID,917.149,VALID,0,VALID,99.8553,VALID,0,VALID,19.6312,VALID,151,VALID,1.11337,
2005-02-17, 02:39:00,VALID,917.151,VALID,0,VALID,99.7955,VALID,0.0169808,VALID,19.6414,VALID,156,VALID,1.53767,
2005-02-17, 02:40:00,VALID,917.155,VALID,0,VALID,99.704,VALID,0,VALID,19.6538,VALID,153,VALID,1.22389,
2005-02-17, 02:41:00,VALID,917.144,VALID,0,VALID,99.6239,VALID,-0.0169808,VALID,19.6769,VALID,160,VALID,1.26618,
2005-02-17, 02:42:00,VALID,917.147,VALID,0,VALID,99.5196,VALID,0,VALID,19.6764,VALID,150,VALID,1.22275,
2005-02-17, 02:43:00,VALID,917.141,VALID,0,VALID,99.4268,VALID,0.0169808,VALID,19.6863,VALID,155,VALID,1.2433,
2005-02-17, 02:44:00,VALID,917.156,VALID,0,VALID,99.3721,VALID,0,VALID,19.7089,VALID,142,VALID,1.41964,
2005-02-17, 02:45:00,VALID,917.159,VALID,0,VALID,99.189,VALID,0.0169808,VALID,19.731,VALID,147,VALID,1.13408,
2005-02-17, 02:46:00,VALID,917.161,VALID,0,VALID,99.0097,VALID,0.0169808,VALID,19.7273,VALID,137,VALID,1.13899,
2005-02-17, 02:47:00,VALID,917.155,VALID,0,VALID,98.9168,VALID,0,VALID,19.7509,VALID,139,VALID,1.27865,
2005-02-17, 02:48:00,VALID,917.156,VALID,0,VALID,98.8367,VALID,0,VALID,19.7608,VALID,145,VALID,1.08834,
2005-02-17, 02:49:00,VALID,917.153,VALID,0,VALID,98.7655,VALID,0,VALID,19.7708,VALID,154,VALID,0.83457,
2005-02-17, 02:50:00,VALID,917.147,VALID,0,VALID,98.688,VALID,0,VALID,19.777,VALID,155,VALID,1.02548,
2005-02-17, 02:51:00,VALID,917.141,VALID,0,VALID,98.5773,VALID,0,VALID,19.7926,VALID,155,VALID,0.503606,
2005-02-17, 02:52:00,VALID,917.127,VALID,0,VALID,98.4705,VALID,0.0679233,VALID,19.7728,VALID,142,VALID,0.572743,
2005-02-17, 02:53:00,VALID,917.105,VALID,0,VALID,98.4527,VALID,0.0509425,VALID,19.7765,VALID,141,VALID,0.682776,
2005-02-17, 02:54:00,VALID,917.115,VALID,0,VALID,98.468,VALID,0.0339617,VALID,19.7442,VALID,132,VALID,0.96532,
2005-02-17, 02:55:00,VALID,917.1,VALID,0,VALID,98.5443,VALID,0.0679233,VALID,19.731,VALID,141,VALID,1.03981,
2005-02-17, 02:56:00,VALID,917.12,VALID,0,VALID,98.5125,VALID,0.0339617,VALID,19.7218,VALID,144,VALID,0.865282,
2005-02-17, 02:57:00,VALID,917.126,VALID,0,VALID,98.5659,VALID,0.0679233,VALID,19.7149,VALID,135,VALID,0.516369,
2005-02-17, 02:58:00,VALID,917.162,VALID,0,VALID,98.6155,VALID,0.0509425,VALID,19.7057,VALID,120,VALID,0.331143,
2005-02-17, 02:59:00,VALID,917.178,VALID,0,VALID,98.66,VALID,0.0339617,VALID,19.6923,VALID,109,VALID,0.925199,
2005-02-17, 03:00:00,VALID,917.209,VALID,0,VALID,98.5773,VALID,0.0509425,VALID,19.6893,VALID,112,VALID,1.0334,
2005-02-17, 03:01:00,VALID,917.221,VALID,0,VALID,98.5532,VALID,0.0849042,VALID,19.6761,VALID,88,VALID,0.756611,
2005-02-17, 03:02:00,VALID,917.225,VALID,0,VALID,98.5583,VALID,0.0339617,VALID,19.6801,VALID,75,VALID,1.10061,
2005-02-17, 03:03:00,VALID,917.213,VALID,0,VALID,98.4642,VALID,0.0509425,VALID,19.6605,VALID,45,VALID,0.893415,
2005-02-17, 03:04:00,VALID,917.203,VALID,0,VALID,98.4514,VALID,0.0509425,VALID,19.6376,VALID,44,VALID,0.622582,
2005-02-17, 03:05:00,VALID,917.197,VALID,0,VALID,98.4527,VALID,0.0169808,VALID,19.6217,VALID,42,VALID,0.792039,
2005-02-17, 03:06:00,VALID,917.196,VALID,0,VALID,98.4591,VALID,0,VALID,19.6029,VALID,56,VALID,1.01781,
2005-02-17, 03:07:00,VALID,917.185,VALID,0,VALID,98.4158,VALID,-0.0849042,VALID,19.5875,VALID,37,VALID,0.928757,
2005-02-17, 03:08:00,VALID,917.183,VALID,0,VALID,98.4006,VALID,-0.0679233,VALID,19.5681,VALID,36,VALID,1.14631,
2005-02-17, 03:09:00,VALID,917.175,VALID,0,VALID,98.4692,VALID,-0.0339617,VALID,19.5489,VALID,22,VALID,1.32596,
2005-02-17, 03:10:00,VALID,917.174,VALID,0,VALID,98.5125,VALID,-0.0509425,VALID,19.5261,VALID,30,VALID,1.21341,
2005-02-17, 03:11:00,VALID,917.161,VALID,0,VALID,98.5964,VALID,-0.0509425,VALID,19.4844,VALID,32,VALID,1.37691,
2005-02-17, 03:12:00,VALID,917.139,VALID,0,VALID,98.7592,VALID,-0.0509425,VALID,19.468,VALID,43,VALID,1.58848,
2005-02-17, 03:13:00,VALID,917.108,VALID,0,VALID,98.8049,VALID,-0.0679233,VALID,19.4618,VALID,35,VALID,1.19113,
2005-02-17, 03:14:00,VALID,917.093,VALID,0,VALID,98.81,VALID,-0.0679233,VALID,19.4459,VALID,53,VALID,1.05313,
2005-02-17, 03:15:00,VALID,917.066,VALID,0,VALID,98.8673,VALID,-0.0509425,VALID,19.4327,VALID,70,VALID,1.07378,
2005-02-17, 03:16:00,VALID,917.04,VALID,0,VALID,98.9639,VALID,-0.0169808,VALID,19.4059,VALID,81,VALID,1.05736,
2005-02-17, 03:17:00,VALID,917.005,VALID,0,VALID,98.9703,VALID,-0.0339617,VALID,19.4233,VALID,96,VALID,1.1875,
2005-02-17, 03:18:00,VALID,916.98,VALID,0,VALID,98.941,VALID,-0.0509425,VALID,19.4163,VALID,100,VALID,1.07279,
2005-02-17, 03:19:00,VALID,916.945,VALID,0,VALID,98.8253,VALID,-0.0339617,VALID,19.4193,VALID,119,VALID,1.53262,
2005-02-17, 03:20:00,VALID,916.935,VALID,0,VALID,98.6778,VALID,-0.0679233,VALID,19.4262,VALID,121,VALID,1.42478,
2005-02-17, 03:21:00,VALID,916.931,VALID,0,VALID,98.604,VALID,-0.0509425,VALID,19.4424,VALID,123,VALID,1.2309,
2005-02-17, 03:22:00,VALID,916.916,VALID,0,VALID,98.5659,VALID,-0.0169808,VALID,19.458,VALID,128,VALID,1.21187,
2005-02-17, 03:23:00,VALID,916.926,VALID,0,VALID,98.5099,VALID,-0.0849042,VALID,19.4739,VALID,133,VALID,1.1908,
2005-02-17, 03:24:00,VALID,916.934,VALID,0,VALID,98.4273,VALID,-0.0679233,VALID,19.4869,VALID,137,VALID,1.25186,
2005-02-17, 03:25:00,VALID,916.926,VALID,0,VALID,98.3662,VALID,-0.101885,VALID,19.504,VALID,139,VALID,1.20852,
2005-02-17, 03:26:00,VALID,916.941,VALID,0,VALID,98.3421,VALID,-0.101885,VALID,19.5005,VALID,144,VALID,1.17057,
2005-02-17, 03:27:00,VALID,916.944,VALID,0,VALID,98.3599,VALID,-0.0679233,VALID,19.5102,VALID,147,VALID,1.24165,
2005-02-17, 03:28:00,VALID,916.939,VALID,0,VALID,98.3179,VALID,-0.0509425,VALID,19.5132,VALID,152,VALID,1.04353,
2005-02-17, 03:29:00,VALID,916.94,VALID,0,VALID,98.2632,VALID,-0.0509425,VALID,19.503,VALID,143,VALID,0.880632,
2005-02-17, 03:30:00,VALID,916.938,VALID,0,VALID,98.2238,VALID,-0.0679233,VALID,19.5005,VALID,148,VALID,0.884448,
2005-02-17, 03:31:00,VALID,916.934,VALID,0,VALID,98.2086,VALID,-0.0679233,VALID,19.504,VALID,136,VALID,0.980655,
2005-02-17, 03:32:00,VALID,916.927,VALID,0,VALID,98.2213,VALID,-0.0339617,VALID,19.4973,VALID,142,VALID,0.703497,
2005-02-17, 03:33:00,VALID,916.912,VALID,0,VALID,98.2467,VALID,-0.0169808,VALID,19.4777,VALID,147,VALID,0.895419,
2005-02-17, 03:34:00,VALID,916.904,VALID,0,VALID,98.4756,VALID,-0.0339617,VALID,19.4744,VALID,146,VALID,1.19985,
2005-02-17, 03:35:00,VALID,916.895,VALID,0,VALID,98.6015,VALID,-0.0169808,VALID,19.4873,VALID,154,VALID,1.07217,
2005-02-17, 03:36:00,VALID,916.876,VALID,0,VALID,98.6524,VALID,0,VALID,19.5065,VALID,138,VALID,0.751272,
2005-02-17, 03:37:00,VALID,916.863,VALID,0,VALID,98.6384,VALID,-0.0169808,VALID,19.5256,VALID,151,VALID,1.11239,
2005-02-17, 03:38:00,VALID,916.866,VALID,0,VALID,98.5939,VALID,-0.0509425,VALID,19.5286,VALID,147,VALID,1.21354,
2005-02-17, 03:39:00,VALID,916.849,VALID,0,VALID,98.5989,VALID,0,VALID,19.5547,VALID,149,VALID,1.19549,